User: anonymous   Login
Location: Unspecified
(0.0000°N, 0.0000°E)
Time: 19:26:02
(UTC+00:00)
Language:

STARLINK-31661 - Orbit

View from above orbital plane
View from above orbital plane
View from above satellite
View from above satellite

Ground track
Ground track

The orbit is defined by the following mean orbital elements,

1 59735U          26145.27058992 +.00000000 +00000-0 +10184-3 0 00009
2 59735  43.0033 103.9631 0001510 276.9187  83.1493 15.27592778    05
Epoch (UTC): 25 May 2026 06:29:38
Eccentricity: 0.0001510
inclination: 43.0033°
perigee height: 482 km
apogee height: 484 km
right ascension of ascending node: 103.9631°
argument of perigee: 276.9187°
revolutions per day: 15.27592778
mean anomaly at epoch: 83.1493°

The dashed part of the orbit path shows where the satellite is in the earth's shadow,  

DLR